Time,TemperatureF,DewpointF,PressureIn,WindDirection,WindDirectionDegrees,WindSpeedMPH,WindSpeedGustMPH,Humidity,HourlyPrecipIn,Conditions,Clouds,dailyrainin,SoftwareType,DateUTC
2013-01-11 00:02:00,25.0,13.0,29.73,WSW,246,8.0,21.0,61,0.00,,,0.00,,2013-01-11 07:02:00,
2013-01-11 00:11:00,24.0,16.0,29.73,West,272,7.0,20.0,70,0.00,,,0.00,,2013-01-11 07:11:00,
2013-01-11 00:22:00,24.0,16.0,29.73,West,272,7.0,20.0,70,0.00,,,0.00,,2013-01-11 07:22:00,
2013-01-11 00:32:00,24.0,14.0,29.73,WSW,256,8.0,16.0,65,0.00,,,0.00,,2013-01-11 07:32:00,
2013-01-11 00:42:00,24.0,13.0,29.74,SW,234,5.0,15.0,62,0.00,,,0.00,,2013-01-11 07:42:00,
2013-01-11 00:52:00,24.0,13.0,29.74,SW,234,5.0,15.0,62,0.00,,,0.00,,2013-01-11 07:52:00,
2013-01-11 01:02:00,24.0,14.0,29.74,SW,219,8.0,20.0,65,0.00,,,0.00,,2013-01-11 08:02:00,
2013-01-11 01:11:00,24.0,15.0,29.75,West,265,5.0,15.0,67,0.00,,,0.00,,2013-01-11 08:11:00,
2013-01-11 01:22:00,24.0,15.0,29.75,West,265,5.0,15.0,67,0.00,,,0.00,,2013-01-11 08:22:00,
2013-01-11 01:32:00,23.0,14.0,29.75,WSW,240,7.0,17.0,69,0.00,,,0.00,,2013-01-11 08:32:00,
2013-01-11 01:42:00,23.0,14.0,29.75,WSW,240,7.0,17.0,69,0.00,,,0.00,,2013-01-11 08:42:00,
2013-01-11 01:52:00,22.0,14.0,29.76,West,260,11.0,22.0,72,0.00,,,0.00,,2013-01-11 08:52:00,
2013-01-11 02:02:00,22.0,15.0,29.77,WSW,240,10.0,17.0,73,0.00,,,0.00,,2013-01-11 09:02:00,
2013-01-11 02:11:00,22.0,15.0,29.77,WSW,240,10.0,17.0,73,0.00,,,0.00,,2013-01-11 09:11:00,
2013-01-11 02:22:00,22.0,15.0,29.77,WSW,250,6.0,13.0,73,0.00,,,0.00,,2013-01-11 09:22:00,
2013-01-11 02:32:00,22.0,15.0,29.75,SSW,192,7.0,17.0,73,0.00,,,0.00,,2013-01-11 09:32:00,
2013-01-11 02:42:00,22.0,15.0,29.75,SSW,192,7.0,17.0,73,0.00,,,0.00,,2013-01-11 09:42:00,
2013-01-11 02:52:00,21.0,14.0,29.77,SW,223,6.0,14.0,73,0.00,,,0.00,,2013-01-11 09:52:00,
2013-01-11 03:02:00,21.0,14.0,29.78,WSW,246,6.0,12.0,74,0.00,,,0.00,,2013-01-11 10:02:00,
2013-01-11 03:11:00,21.0,14.0,29.78,WSW,246,6.0,12.0,74,0.00,,,0.00,,2013-01-11 10:11:00,
2013-01-11 03:22:00,21.0,13.0,29.79,WSW,252,6.0,16.0,71,0.00,,,0.00,,2013-01-11 10:22:00,
2013-01-11 03:32:00,21.0,13.0,29.79,WSW,244,9.0,13.0,70,0.00,,,0.00,,2013-01-11 10:32:00,
2013-01-11 03:42:00,21.0,13.0,29.79,WSW,244,9.0,13.0,70,0.00,,,0.00,,2013-01-11 10:42:00,
2013-01-11 03:52:00,21.0,13.0,29.80,SW,231,5.0,13.0,70,0.00,,,0.00,,2013-01-11 10:52:00,
2013-01-11 04:02:00,20.0,12.0,29.80,WSW,240,11.0,15.0,70,0.00,,,0.00,,2013-01-11 11:02:00,
2013-01-11 04:11:00,20.0,12.0,29.80,WSW,240,11.0,15.0,70,0.00,,,0.00,,2013-01-11 11:11:00,
2013-01-11 04:22:00,20.0,11.0,29.78,WSW,244,9.0,15.0,69,0.00,,,0.00,,2013-01-11 11:22:00,
2013-01-11 04:32:00,20.0,11.0,29.78,SW,219,6.0,15.0,68,0.00,,,0.00,,2013-01-11 11:32:00,
2013-01-11 04:42:00,20.0,11.0,29.78,SW,219,6.0,15.0,68,0.00,,,0.00,,2013-01-11 11:42:00,
2013-01-11 04:53:00,20.0,11.0,29.79,WSW,240,8.0,11.0,68,0.00,,,0.00,,2013-01-11 11:53:00,
2013-01-11 05:02:00,19.0,10.0,29.80,WSW,246,10.0,14.0,68,0.00,,,0.00,,2013-01-11 12:02:00,
2013-01-11 05:12:00,19.0,10.0,29.80,WSW,246,10.0,14.0,68,0.00,,,0.00,,2013-01-11 12:12:00,
2013-01-11 05:22:00,19.0,11.0,29.80,SW,215,6.0,14.0,69,0.00,,,0.00,,2013-01-11 12:22:00,
2013-01-11 05:32:00,19.0,10.0,29.81,SW,229,8.0,14.0,68,0.00,,,0.00,,2013-01-11 12:32:00,
2013-01-11 05:42:00,19.0,10.0,29.81,SW,229,8.0,14.0,68,0.00,,,0.00,,2013-01-11 12:42:00,
2013-01-11 05:52:00,19.0,10.0,29.82,WSW,242,6.0,13.0,68,0.00,,,0.00,,2013-01-11 12:52:00,
2013-01-11 06:02:00,19.0,11.0,29.82,SW,228,7.0,12.0,69,0.00,,,0.00,,2013-01-11 13:02:00,
2013-01-11 06:12:00,19.0,11.0,29.82,SW,228,7.0,12.0,69,0.00,,,0.00,,2013-01-11 13:12:00,
2013-01-11 06:22:00,18.0,10.0,29.81,SW,225,6.0,10.0,69,0.00,,,0.00,,2013-01-11 13:22:00,
2013-01-11 06:32:00,18.0,10.0,29.83,West,260,2.0,5.0,70,0.00,,,0.00,,2013-01-11 13:32:00,
2013-01-11 06:42:00,18.0,10.0,29.83,West,260,2.0,5.0,70,0.00,,,0.00,,2013-01-11 13:42:00,
2013-01-11 06:52:00,18.0,10.0,29.83,SW,223,4.0,6.0,71,0.00,,,0.00,,2013-01-11 13:52:00,
2013-01-11 07:02:00,17.0,10.0,29.84,SW,232,2.0,6.0,72,0.00,,,0.00,,2013-01-11 14:02:00,
2013-01-11 07:11:00,17.0,10.0,29.85,West,264,2.0,4.0,72,0.00,,,0.00,,2013-01-11 14:11:00,
2013-01-11 07:22:00,17.0,10.0,29.85,West,264,2.0,4.0,72,0.00,,,0.00,,2013-01-11 14:22:00,
2013-01-11 07:32:00,17.0,10.0,29.86,SSW,209,4.0,9.0,72,0.00,,,0.00,,2013-01-11 14:32:00,
2013-01-11 07:42:00,18.0,10.0,29.87,WSW,240,6.0,10.0,69,0.00,,,0.00,,2013-01-11 14:42:00,
2013-01-11 07:53:00,18.0,10.0,29.87,WSW,240,6.0,10.0,69,0.00,,,0.00,,2013-01-11 14:53:00,
2013-01-11 08:02:00,17.0,9.0,29.87,West,272,2.0,7.0,70,0.00,,,0.00,,2013-01-11 15:02:00,
2013-01-11 08:12:00,17.0,9.0,29.86,NW,322,1.0,3.0,69,0.00,,,0.00,,2013-01-11 15:12:00,
2013-01-11 08:22:00,17.0,9.0,29.86,NW,322,1.0,3.0,69,0.00,,,0.00,,2013-01-11 15:22:00,
2013-01-11 08:32:00,17.0,8.0,29.87,West,265,3.0,5.0,66,0.00,,,0.00,,2013-01-11 15:32:00,
2013-01-11 08:42:00,17.0,8.0,29.87,West,265,3.0,5.0,66,0.00,,,0.00,,2013-01-11 15:42:00,
2013-01-11 08:53:00,19.0,7.0,29.87,West,273,3.0,7.0,60,0.00,,,0.00,,2013-01-11 15:53:00,
2013-01-11 09:02:00,21.0,7.0,29.89,West,278,5.0,10.0,54,0.00,,,0.00,,2013-01-11 16:02:00,
2013-01-11 09:12:00,22.0,5.0,29.90,NW,304,5.0,11.0,48,0.00,,,0.00,,2013-01-11 16:12:00,
2013-01-11 09:22:00,22.0,5.0,29.90,NW,304,5.0,11.0,48,0.00,,,0.00,,2013-01-11 16:22:00,
2013-01-11 09:32:00,23.0,5.0,29.91,NW,306,3.0,11.0,45,0.00,,,0.00,,2013-01-11 16:32:00,
2013-01-11 09:42:00,23.0,5.0,29.91,West,272,2.0,12.0,45,0.00,,,0.00,,2013-01-11 16:42:00,
2013-01-11 09:53:00,23.0,5.0,29.91,West,272,2.0,12.0,45,0.00,,,0.00,,2013-01-11 16:53:00,
2013-01-11 10:02:00,23.0,3.0,29.91,NW,305,6.0,11.0,42,0.00,,,0.00,,2013-01-11 17:02:00,
2013-01-11 10:11:00,23.0,2.0,29.92,West,267,5.0,12.0,40,0.00,,,0.00,,2013-01-11 17:11:00,
2013-01-11 10:22:00,23.0,2.0,29.92,West,267,5.0,12.0,40,0.00,,,0.00,,2013-01-11 17:22:00,
2013-01-11 10:32:00,24.0,3.0,29.91,NW,314,5.0,11.0,39,0.00,,,0.00,,2013-01-11 17:32:00,
2013-01-11 10:42:00,24.0,3.0,29.91,NW,314,5.0,11.0,39,0.00,,,0.00,,2013-01-11 17:42:00,
2013-01-11 10:53:00,24.0,3.0,29.91,NW,307,8.0,13.0,39,0.00,,,0.00,,2013-01-11 17:53:00,
2013-01-11 11:02:00,24.0,4.0,29.91,WSW,250,1.0,11.0,41,0.00,,,0.00,,2013-01-11 18:02:00,
2013-01-11 11:12:00,24.0,4.0,29.91,WSW,250,1.0,11.0,41,0.00,,,0.00,,2013-01-11 18:12:00,
2013-01-11 11:22:00,26.0,4.0,29.91,WSW,257,2.0,12.0,39,0.00,,,0.00,,2013-01-11 18:22:00,
2013-01-11 11:32:00,26.0,3.0,29.91,NW,323,4.0,9.0,37,0.00,,,0.00,,2013-01-11 18:32:00,
2013-01-11 11:42:00,26.0,3.0,29.91,NW,323,4.0,9.0,37,0.00,,,0.00,,2013-01-11 18:42:00,
2013-01-11 11:53:00,25.0,2.0,29.91,WSW,252,6.0,13.0,37,0.00,,,0.00,,2013-01-11 18:53:00,
2013-01-11 12:02:00,26.0,2.0,29.91,WSW,256,7.0,14.0,35,0.00,,,0.00,,2013-01-11 19:02:00,
2013-01-11 12:12:00,26.0,2.0,29.91,WSW,256,7.0,14.0,35,0.00,,,0.00,,2013-01-11 19:12:00,
2013-01-11 12:22:00,27.0,2.0,29.90,NNW,336,7.0,12.0,33,0.00,,,0.00,,2013-01-11 19:22:00,
2013-01-11 12:32:00,27.0,2.0,29.89,West,271,7.0,15.0,34,0.00,,,0.00,,2013-01-11 19:32:00,
2013-01-11 12:42:00,27.0,2.0,29.89,West,271,7.0,15.0,34,0.00,,,0.00,,2013-01-11 19:42:00,
2013-01-11 12:53:00,27.0,2.0,29.89,West,275,3.0,14.0,33,0.00,,,0.00,,2013-01-11 19:53:00,
2013-01-11 13:02:00,28.0,2.0,29.88,SW,229,10.0,14.0,32,0.00,,,0.00,,2013-01-11 20:02:00,
2013-01-11 13:11:00,28.0,2.0,29.88,SW,229,10.0,14.0,32,0.00,,,0.00,,2013-01-11 20:11:00,
2013-01-11 13:22:00,27.0,1.0,29.87,NW,326,5.0,13.0,32,0.00,,,0.00,,2013-01-11 20:22:00,
2013-01-11 13:32:00,28.0,1.0,29.85,NW,322,6.0,12.0,31,0.00,,,0.00,,2013-01-11 20:32:00,
2013-01-11 13:42:00,28.0,1.0,29.85,NW,322,6.0,12.0,31,0.00,,,0.00,,2013-01-11 20:42:00,
2013-01-11 13:53:00,29.0,3.0,29.85,SW,214,8.0,15.0,32,0.00,,,0.00,,2013-01-11 20:53:00,
2013-01-11 14:02:00,28.0,2.0,29.85,NW,306,4.0,14.0,32,0.00,,,0.00,,2013-01-11 21:02:00,
2013-01-11 14:12:00,29.0,1.0,29.85,WSW,247,4.0,12.0,30,0.00,,,0.00,,2013-01-11 21:12:00,
2013-01-11 14:22:00,29.0,1.0,29.85,WSW,247,4.0,12.0,30,0.00,,,0.00,,2013-01-11 21:22:00,
2013-01-11 14:32:00,29.0,3.0,29.84,SSW,207,4.0,12.0,32,0.00,,,0.00,,2013-01-11 21:32:00,
2013-01-11 14:42:00,29.0,3.0,29.84,SSW,207,4.0,12.0,32,0.00,,,0.00,,2013-01-11 21:42:00,
2013-01-11 14:52:00,29.0,2.0,29.85,West,259,8.0,14.0,31,0.00,,,0.00,,2013-01-11 21:52:00,
2013-01-11 15:02:00,29.0,1.0,29.85,WSW,251,6.0,13.0,30,0.00,,,0.00,,2013-01-11 22:02:00,
2013-01-11 15:12:00,29.0,2.0,29.85,WSW,253,3.0,13.0,31,0.00,,,0.00,,2013-01-11 22:12:00,
2013-01-11 15:22:00,29.0,2.0,29.85,WSW,253,3.0,13.0,31,0.00,,,0.00,,2013-01-11 22:22:00,
2013-01-11 15:32:00,28.0,1.0,29.86,WSW,240,7.0,13.0,31,0.00,,,0.00,,2013-01-11 22:32:00,
2013-01-11 15:42:00,28.0,1.0,29.86,WSW,240,7.0,13.0,31,0.00,,,0.00,,2013-01-11 22:42:00,
2013-01-11 15:52:00,29.0,3.0,29.86,SSW,205,5.0,8.0,32,0.00,,,0.00,,2013-01-11 22:52:00,
2013-01-11 16:01:00,29.0,1.0,29.86,WSW,257,5.0,16.0,30,0.00,,,0.00,,2013-01-11 23:01:00,
2013-01-11 16:12:00,29.0,1.0,29.86,West,279,6.0,10.0,29,0.00,,,0.00,,2013-01-11 23:12:00,
2013-01-11 16:22:00,29.0,1.0,29.86,West,279,6.0,10.0,29,0.00,,,0.00,,2013-01-11 23:22:00,
2013-01-11 16:32:00,27.0,0.0,29.86,WSW,241,8.0,15.0,30,0.00,,,0.00,,2013-01-11 23:32:00,
2013-01-11 16:42:00,27.0,0.0,29.86,WSW,241,8.0,15.0,30,0.00,,,0.00,,2013-01-11 23:42:00,
2013-01-11 16:53:00,29.0,-1.0,29.86,West,259,6.0,14.0,27,0.00,,,0.00,,2013-01-11 23:53:00,
2013-01-11 17:02:00,28.0,-2.0,29.86,West,274,7.0,11.0,26,0.00,,,0.00,,2013-01-12 00:02:00,
2013-01-11 17:12:00,28.0,-2.0,29.84,West,281,5.0,10.0,27,0.00,,,0.00,,2013-01-12 00:12:00,
2013-01-11 17:22:00,28.0,-2.0,29.84,West,281,5.0,10.0,27,0.00,,,0.00,,2013-01-12 00:22:00,
2013-01-11 17:32:00,26.0,-2.0,29.84,WSW,253,4.0,9.0,29,0.00,,,0.00,,2013-01-12 00:32:00,
2013-01-11 17:42:00,26.0,-2.0,29.84,WSW,253,4.0,9.0,29,0.00,,,0.00,,2013-01-12 00:42:00,
2013-01-11 17:52:00,25.0,-1.0,29.85,West,264,5.0,11.0,31,0.00,,,0.00,,2013-01-12 00:52:00,
2013-01-11 18:02:00,25.0,-1.0,29.85,WSW,253,2.0,7.0,31,0.00,,,0.00,,2013-01-12 01:02:00,
2013-01-11 18:12:00,25.0,-1.0,29.85,WSW,253,2.0,7.0,31,0.00,,,0.00,,2013-01-12 01:12:00,
2013-01-11 18:22:00,24.0,-2.0,29.85,WSW,244,4.0,5.0,31,0.00,,,0.00,,2013-01-12 01:22:00,
2013-01-11 18:32:00,23.0,-2.0,29.86,WSW,248,2.0,6.0,33,0.00,,,0.00,,2013-01-12 01:32:00,
2013-01-11 18:42:00,23.0,-2.0,29.86,WSW,248,2.0,6.0,33,0.00,,,0.00,,2013-01-12 01:42:00,
2013-01-11 18:52:00,22.0,-3.0,29.86,WSW,250,2.0,5.0,33,0.00,,,0.00,,2013-01-12 01:52:00,
2013-01-11 19:02:00,22.0,-1.0,29.86,West,262,3.0,5.0,36,0.00,,,0.00,,2013-01-12 02:02:00,
2013-01-11 19:11:00,22.0,-1.0,29.86,West,262,3.0,5.0,36,0.00,,,0.00,,2013-01-12 02:11:00,
2013-01-11 19:22:00,22.0,-1.0,29.87,WSW,252,4.0,6.0,36,0.00,,,0.00,,2013-01-12 02:22:00,
2013-01-11 19:32:00,21.0,-1.0,29.87,SW,223,4.0,7.0,38,0.00,,,0.00,,2013-01-12 02:32:00,
2013-01-11 19:42:00,21.0,-1.0,29.87,SW,223,4.0,7.0,38,0.00,,,0.00,,2013-01-12 02:42:00,
2013-01-11 19:53:00,21.0,0.0,29.87,WSW,256,4.0,9.0,39,0.00,,,0.00,,2013-01-12 02:53:00,
2013-01-11 20:02:00,21.0,0.0,29.88,WSW,237,3.0,7.0,39,0.00,,,0.00,,2013-01-12 03:02:00,
2013-01-11 20:11:00,21.0,0.0,29.88,WSW,237,3.0,7.0,39,0.00,,,0.00,,2013-01-12 03:11:00,
2013-01-11 20:22:00,21.0,0.0,29.88,WSW,250,3.0,8.0,39,0.00,,,0.00,,2013-01-12 03:22:00,
2013-01-11 20:32:00,17.0,0.0,29.89,NNW,331,1.0,4.0,47,0.00,,,0.00,,2013-01-12 03:32:00,
2013-01-11 20:42:00,17.0,0.0,29.89,NNW,331,1.0,4.0,47,0.00,,,0.00,,2013-01-12 03:42:00,
2013-01-11 20:53:00,16.0,1.0,29.87,WNW,290,2.0,3.0,51,0.00,,,0.00,,2013-01-12 03:53:00,
2013-01-11 21:02:00,17.0,1.0,29.87,West,261,2.0,6.0,48,0.00,,,0.00,,2013-01-12 04:02:00,
2013-01-11 21:11:00,17.0,0.0,29.87,WSW,240,0.0,0.0,47,0.00,,,0.00,,2013-01-12 04:11:00,
2013-01-11 21:22:00,17.0,0.0,29.87,WSW,240,0.0,0.0,47,0.00,,,0.00,,2013-01-12 04:22:00,
2013-01-11 21:32:00,17.0,0.0,29.87,WSW,240,0.0,0.0,46,0.00,,,0.00,,2013-01-12 04:32:00,
2013-01-11 21:42:00,17.0,0.0,29.87,WSW,240,0.0,0.0,46,0.00,,,0.00,,2013-01-12 04:42:00,
2013-01-11 21:52:00,16.0,-1.0,29.87,WSW,240,0.0,1.0,47,0.00,,,0.00,,2013-01-12 04:52:00,
2013-01-11 22:02:00,15.0,1.0,29.88,WSW,240,1.0,3.0,53,0.00,,,0.00,,2013-01-12 05:02:00,
2013-01-11 22:12:00,15.0,1.0,29.88,WSW,240,1.0,3.0,53,0.00,,,0.00,,2013-01-12 05:12:00,
2013-01-11 22:22:00,14.0,1.0,29.88,WSW,240,1.0,2.0,56,0.00,,,0.00,,2013-01-12 05:22:00,
2013-01-11 22:32:00,14.0,0.0,29.88,West,260,0.0,2.0,54,0.00,,,0.00,,2013-01-12 05:32:00,
2013-01-11 22:42:00,14.0,0.0,29.88,West,260,0.0,2.0,54,0.00,,,0.00,,2013-01-12 05:42:00,
2013-01-11 22:52:00,14.0,0.0,29.88,WSW,248,0.0,0.0,52,0.00,,,0.00,,2013-01-12 05:52:00,
2013-01-11 23:02:00,15.0,-2.0,29.88,WSW,248,0.0,0.0,47,0.00,,,0.00,,2013-01-12 06:02:00,
2013-01-11 23:11:00,15.0,-2.0,29.88,WSW,248,0.0,0.0,47,0.00,,,0.00,,2013-01-12 06:11:00,
2013-01-11 23:22:00,16.0,-2.0,29.89,WSW,246,0.0,3.0,44,0.00,,,0.00,,2013-01-12 06:22:00,
2013-01-11 23:32:00,16.0,-3.0,29.87,WSW,247,0.0,0.0,42,0.00,,,0.00,,2013-01-12 06:32:00,
2013-01-11 23:42:00,16.0,-3.0,29.87,WSW,247,0.0,0.0,42,0.00,,,0.00,,2013-01-12 06:42:00,
2013-01-11 23:52:00,15.0,-2.0,29.87,SE,137,1.0,2.0,47,0.00,,,0.00,,2013-01-12 06:52:00,